Monty Just

Chefscout - Team Wellington
3 Apr 2027
Samstag
Verarbeitung

Persönlichkeit

Anpassungsfähigkeit (1) Ehrgeiz (17) Kontroverse (15) Loyalität (10) Druck (16) Professionalität (14) Fairness (17) Temperament (17)

Profil

Trainerstil Demokratisch
Lizenz Kontinentale C
Entschlossenheit 4
Menschenführung 2
Motivation 7
Disziplin 3
Arbeitszufriedenheit
50%
Ermüdung
0%
Rolle Chefscout
Gehalt 27.2K p/W
Vertrag 14.03.2030

Leistung

Verhalten Normal
Trainingseffektivität
11%
Spielerentwicklung
35%
Verletzungsprävention
30%
Taktische Umsetzung
15%

Letzte Ereignisse

Nahm an einer Scouting-Besprechung teil jetzt
Spieler begutachtet jetzt
Spieler begutachtet 7T her
Nahm an einer Scouting-Besprechung teil 7T her
Spieler begutachtet 7T her
Spieler begutachtet 7T her
Spieler begutachtet 7T her
Spieler begutachtet 7T her

Aktuell beobachtet

160
Spieler Verein Status Fähigkeit Vertrauen Beobachtet Zuletzt beobachtet Letzte Stimme
Jordan Roberts Stevenage Aktiv 125 / 110 40% 3 02.04.2027 -
Simone Ianesi Pianese Aktiv 117 / 87 40% 2 02.04.2027 -
Freddie Draper Lincoln City Aktiv 96 / 112 40% 2 01.04.2027 -
Michael Mellon Stevenage Aktiv 94 / 96 40% 1 01.04.2027 -
Tyrese Shade Burton Albion Aktiv 95 / 99 40% 3 31.03.2027 -
Fabio Abiuso Carrarese Aktiv 103 / 115 40% 2 31.03.2027 -
Midana Cassamá Portimonense Aktiv 118 / 110 40% 1 27.03.2027 -
Francesco Nicastro Vis Pesaro Aktiv 86 / 78 40% 1 27.03.2027 -
Elia Petrelli Forli Aktiv 110 / 92 40% 1 26.03.2027 -
Sam Nombe Milton Keynes Dons Aktiv 111 / 121 40% 1 26.03.2027 -
Daniel Udoh Salford City Aktiv 120 / 117 40% 1 25.03.2027 -
Josh Woods Accrington Stanley Aktiv 93 / 65 40% 2 23.03.2027 -
Louis Appéré Cambridge United Aktiv 92 / 75 40% 3 23.03.2027 -
Kane Drummond Oldham Athletic Aktiv 104 / 104 40% 2 22.03.2027 -
Mason Bennett Harrogate Town Aktiv 88 / 89 40% 3 21.03.2027 -
Amani Richards Milton Keynes Dons Aktiv 96 / 89 40% 1 19.03.2027 -
Ekain Orobengoa Real Sociedad Aktiv 119 / 91 40% 1 19.03.2027 -
Kamarai Swyer Northampton Town Aktiv 69 / 98 40% 2 18.03.2027 -
Tom Bloxham Blackpool Aktiv 119 / 110 40% 1 18.03.2027 -
José Bica Leixões Aktiv 104 / 100 40% 1 17.03.2027 -
Shayne Lavery Cambridge United Aktiv 87 / 117 40% 1 17.03.2027 -
Elliott List Northampton Town Aktiv 113 / 72 40% 3 16.03.2027 -
Makenzie Kirk Portsmouth Aktiv 122 / 103 40% 1 16.03.2027 -
Anthony Didulica Perth Glory Aktiv 62 / 76 40% 1 14.03.2027 -
Mitchell Duke Macarthur FC Aktiv 120 / 120 40% 1 13.03.2027 -
Naoufal Bannis Vitesse Aktiv 107 / 84 40% 1 13.03.2027 -
Tom Bradshaw Feirense Aktiv 106 / 116 40% 1 12.03.2027 -
Stephen Humphrys Bradford City Abgelehnt 99 / 98 40% 2 11.03.2027 Mehr Infos nötig
Matty Stevens AFC Wimbledon Aktiv 124 / 92 40% 1 08.03.2027 -
Eljon Toci Dolomiti Bellunesi Aktiv 82 / 79 40% 1 04.03.2027 -
Paul Glatzel Swindon Town Aktiv 80 / 99 40% 1 02.03.2027 -
Shawn McCoulsky Harrogate Town Verloren 80 / 88 40% 1 27.01.2027 -
Jamie Reid Stevenage Verloren 89 / 90 40% 1 27.01.2027 -
Miullen Hibernians Verloren 85 / 92 40% 2 19.01.2027 -
Aaron Drinan Swindon Town Aktiv 94 / 105 40% 1 18.01.2027 -
Marcelo Sliema Wanderers Aktiv 71 / 67 40% 1 18.01.2027 -
Gabriel Costa Naxxar Lions Verloren 81 / 64 40% 1 04.01.2027 -
Uroš Đuranović Sliema Wanderers Verloren 86 / 111 40% 2 01.01.2027 -
Nikos Karelis Sliema Wanderers Verloren 85 / 83 40% 1 01.01.2027 -
Luís Mota Zabbar St. Patrick Verloren 96 / 94 40% 1 31.12.2026 -
Luca Connell Barnsley Aktiv 117 / 103 40% 2 29.12.2026 -
Ryan Stirk Chesterfield Aktiv 116 / 100 40% 2 28.12.2026 Mehr Infos nötig
Rio Adébísí Peterborough United Aktiv 114 / 104 40% 1 28.12.2026 -
Yilson Mosquera Tarxien Rainbows Aktiv 111 / 72 40% 3 27.12.2026 Ablehnen
Sthembiso Hlophe Hamrun Spartans Aktiv 84 / 86 40% 3 27.12.2026 -
Tom Pearce Chesterfield Aktiv 87 / 107 40% 1 25.12.2026 -
Jack Lankester Crewe Alexandra Aktiv 82 / 88 40% 1 25.12.2026 -
Teddy Teuma Sliema Wanderers Aktiv 119 / 123 40% 3 24.12.2026 -
Kyle John Port Vale Aktiv 122 / 115 40% 2 23.12.2026 -
Corey O'Keeffe Barnsley Aktiv 122 / 84 40% 2 22.12.2026 -
Ékené Awazie Mosta Aktiv 103 / 68 40% 2 20.12.2026 Mehr Infos nötig
Kamil Conteh Bristol Rovers Aktiv 99 / 105 40% 2 19.12.2026 Mehr Infos nötig
Kelechi Nwakali Barnsley Aktiv 95 / 105 40% 1 19.12.2026 -
Liam Coyle Accrington Stanley Aktiv 78 / 85 40% 1 18.12.2026 -
Jamie Jellis Walsall Aktiv 98 / 106 40% 1 18.12.2026 -
Mitch Clark Port Vale Aktiv 97 / 97 40% 2 17.12.2026 -
Dean Campbell Northampton Town Aktiv 95 / 114 40% 1 13.12.2026 -
Liam Bennett Cambridge United Aktiv 94 / 122 40% 1 11.12.2026 -
George Thomson Harrogate Town Aktiv 72 / 107 40% 2 09.12.2026 -
Jay Matete Milton Keynes Dons Aktiv 95 / 103 40% 1 08.12.2026 -
Fraser Murray Wigan Athletic Aktiv 114 / 100 40% 1 08.12.2026 Mehr Infos nötig
Vinicius Baiano Naxxar Lions Aktiv 87 / 111 40% 1 07.12.2026 -
Brian Gambarte Sliema Wanderers Aktiv 110 / 102 40% 1 06.12.2026 -
Matt Grimes Coventry City Aktiv 138 / 133 40% 1 05.12.2026 -
Wesley Tarxien Rainbows Aktiv 106 / 118 40% 2 03.12.2026 -
Marcus Browne AFC Wimbledon Aktiv 94 / 123 40% 1 03.12.2026 -
Dylan Duffy Chesterfield Aktiv 88 / 99 40% 3 02.12.2026 -
Oriol Romeu Southampton Aktiv 143 / 145 40% 1 02.12.2026 -
Vincenzo Polito Hamrun Spartans Aktiv 99 / 108 40% 1 30.11.2026 -
Bruno Figueiredo Zabbar St. Patrick Aktiv 78 / 112 40% 3 28.11.2026 -
Ulises Arias Marsaxlokk Aktiv 87 / 96 40% 1 28.11.2026 -
Máxuell Maia Gzira United Aktiv 77 / 97 40% 1 26.11.2026 -
Charlie Taylor Southampton Aktiv 123 / 136 40% 2 25.11.2026 -
Jude Soonsup-Bell Hapoel Acre Aktiv 90 / 106 40% 1 25.11.2026 -
Yuri Messias Valletta Aktiv 95 / 64 40% 2 21.11.2026 -
Roko Prša Valletta Aktiv 86 / 106 40% 2 21.11.2026 -
Danilo Bulevardi Hamrun Spartans Aktiv 105 / 96 40% 2 20.11.2026 -
Jonathan Bland Barnsley Aktiv 111 / 101 40% 1 17.11.2026 -
Kléri Serber Hamrun Spartans Aktiv 80 / 120 40% 1 17.11.2026 -
Leo Pecover Bristol City Aktiv 70 / 77 40% 2 16.11.2026 -
Panos Armenakas Birkirkara Aktiv 86 / 107 40% 1 16.11.2026 -
Rhys Walters Port Vale Aktiv 117 / 125 40% 1 12.11.2026 -
Staša Bastić Gzira United Aktiv 78 / 93 40% 3 11.11.2026 -
Ibrahim Fullah Charlton Athletic Aktiv 101 / 123 40% 2 11.11.2026 -
Robbie McKenzie Gillingham Aktiv 106 / 89 40% 1 09.11.2026 -
Jamie Allen Coventry City Aktiv 115 / 97 40% 2 08.11.2026 -
Alfredo Garcia La Equidad Aktiv 151 / 147 40% 2 07.11.2026 -
Conor Grant Notts County Aktiv 79 / 111 40% 2 06.11.2026 -
Clinton Mola Bristol Rovers Aktiv 104 / 105 40% 2 06.11.2026 -
Yeangel Montero Naxxar Lions Aktiv 85 / 83 40% 2 05.11.2026 -
Liam Shaw Northampton Town Aktiv 115 / 100 40% 1 01.11.2026 -
Louie Sibley Oxford United Aktiv 118 / 102 40% 1 01.11.2026 -
Fede Varela Floriana Aktiv 103 / 102 40% 3 30.10.2026 -
Johan Bonilla Gzira United Aktiv 80 / 81 40% 1 30.10.2026 -
Siphelo Baloni Semen Padang Aktiv 108 / 99 40% 3 29.10.2026 -
Hayden Coulson Blackpool Aktiv 111 / 95 40% 1 28.10.2026 -
Kai Enslin Charlton Athletic Aktiv 81 / 106 40% 1 25.10.2026 -
Diogo Tavares Valletta Aktiv 101 / 95 40% 1 25.10.2026 -
Oshobe Oladele Floriana Aktiv 108 / 81 40% 1 24.10.2026 -
Hakeeb Adelakun Doncaster Rovers Aktiv 88 / 105 40% 2 23.10.2026 -
Bruno Gomes Valletta Aktiv 94 / 85 40% 3 21.10.2026 -
Macaulay Langstaff Millwall Aktiv 99 / 122 40% 1 20.10.2026 -
Dani Carvajal Real Madrid Aktiv 171 / 152 40% 1 20.10.2026 -
Jordan Houghton Stevenage Aktiv 100 / 88 40% 4 16.10.2026 -
Macauley Southam-Hales Bristol Rovers Aktiv 79 / 100 40% 2 14.10.2026 Mehr Infos nötig
Giancarlo Mosta Aktiv 68 / 102 40% 1 14.10.2026 -
Andreas Weimann Cheltenham Town Aktiv 116 / 119 40% 2 13.10.2026 -
Jake Hollman Walsall Aktiv 111 / 102 40% 1 13.10.2026 -
Khotso Malope Hamrun Spartans Aktiv 78 / 71 40% 2 12.10.2026 -
JP Iseppe Birkirkara Aktiv 82 / 86 40% 1 12.10.2026 -
Jurgen Degabriele Hibernians Aktiv 65 / 83 40% 1 11.10.2026 -
Matthew Bolaños Mosta Aktiv 86 / 97 40% 1 09.10.2026 -
Miro Soldo Zabbar St. Patrick Aktiv 89 / 103 40% 1 08.10.2026 -
Cian Hayes Peterborough United Aktiv 122 / 123 40% 1 08.10.2026 -
Louis Thompson Stevenage Aktiv 108 / 106 40% 3 06.10.2026 -
Robbie Gotts Doncaster Rovers Aktiv 92 / 109 40% 1 06.10.2026 -
Manuel Morello Valletta Aktiv 80 / 78 40% 1 04.10.2026 -
Matty James Southampton Aktiv 123 / 134 40% 1 04.10.2026 -
Fernandinho Sliema Wanderers Aktiv 103 / 110 40% 2 03.10.2026 -
Mark Shelton Barnet Aktiv 93 / 99 40% 1 03.10.2026 -
George Broadbent Doncaster Rovers Aktiv 113 / 88 40% 1 02.10.2026 -
Ryan Croasdale Port Vale Aktiv 80 / 89 40% 1 02.10.2026 -
Ricardo Williams Maluku Utara United Aktiv 76 / 80 40% 1 01.10.2026 -
Robert Murić Floriana Aktiv 97 / 95 40% 1 29.09.2026 -
Jake Doyle-Hayes Exeter City Aktiv 83 / 103 40% 2 28.09.2026 -
Isaac Hutchinson Bristol Rovers Aktiv 84 / 88 40% 1 28.09.2026 -
Vitinho Naxxar Lions Aktiv 97 / 67 40% 1 25.09.2026 -
Josh Hawkes Oldham Athletic Aktiv 93 / 87 40% 2 23.09.2026 -
Isaac Sinclair Accrington Stanley Aktiv 82 / 83 40% 2 22.09.2026 -
Jaheim Headley Port Vale Aktiv 93 / 119 40% 1 20.09.2026 -
Luca Regiardo Newell's Old Boys Aktiv 79 / 121 40% 1 18.09.2026 -
Tendayi Darikwa Lincoln City Aktiv 126 / 100 40% 1 16.09.2026 -
Shaun Rooney Fleetwood Town Aktiv 110 / 103 40% 1 13.09.2026 -
Jordan Bowery Mansfield Town Aktiv 88 / 115 40% 1 12.09.2026 -
Akin Odimayo Crawley Town Aktiv 77 / 104 40% 1 11.09.2026 -
Matt Smith Newport County Aktiv 114 / 104 40% 1 11.09.2026 -
Ben Fox Harrogate Town Aktiv 105 / 61 40% 1 10.09.2026 -
Muhammed Kabiru Arema Aktiv 118 / 80 40% 1 05.09.2026 -
Reuben Reid Charlton Athletic Aktiv 81 / 118 40% 1 05.09.2026 -
Shaft Brewer Valletta Aktiv 67 / 109 40% 2 04.09.2026 -
Zane Okoro Lincoln City Aktiv 87 / 110 40% 1 04.09.2026 -
Ged Garner Newport County Aktiv 92 / 103 40% 1 03.09.2026 -
Shungu Dutiro PSBS Biak Aktiv 70 / 109 40% 1 03.09.2026 -
Ryan Camenzuli Hamrun Spartans Aktiv 95 / 77 40% 1 01.09.2026 -
Owen Lewis Hawke's Bay United Aktiv 94 / 83 44% 1 31.08.2026 -
Jack Grimmer Wycombe Wanderers Aktiv 117 / 122 40% 1 31.08.2026 -
Pedro Cacho Mosta Aktiv 90 / 88 40% 1 30.08.2026 -
Domantas Šimkus Marsaxlokk Aktiv 104 / 109 40% 2 29.08.2026 -
Jack Evans Harrogate Town Aktiv 97 / 69 40% 1 29.08.2026 -
Tom Naylor Chesterfield Aktiv 123 / 108 40% 2 28.08.2026 -
Billy Bodin Swindon Town Aktiv 103 / 94 40% 1 28.08.2026 -
Érico Júnior Tarxien Rainbows Aktiv 69 / 105 40% 1 25.08.2026 -
Jackson Mendoza Valletta Aktiv 103 / 89 40% 1 22.08.2026 -
Kai Jennings AFC Wimbledon Aktiv 63 / 98 40% 1 21.08.2026 -
James Plant Tranmere Rovers Aktiv 85 / 97 40% 1 19.08.2026 -
Zhou Tong Auckland City Aktiv 87 / 66 44% 1 17.08.2026 -
Aporosa Yada Labasa Aktiv 51 / 78 40% 1 03.08.2026 -
Joe Gbode Luton Town Aktiv 74 / 82 40% 1 03.08.2026 -
Brian Aguilar Tristán Suárez Aktiv 102 / 131 40% 1 02.08.2026 -
Braian Aranda Agropecuario Argentino Aktiv 105 / 117 40% 1 02.08.2026 -